Flag for Antigua and Barbuda Weather past 2 weeks in Saint John's, Antigua and Barbuda

Now
82 °F

Scattered clouds.


Feels Like: 85 °F
Forecast: 76 / 82 °F
Wind: 14 mph from Southeast

Location: Vc Bird International Antigua Airport

Current Time: Mar 29, 2015 at 10:25:38 AM

Latest Report: Mar 29, 2015 at 10:00 AM


Visibility: N/A

Pressure: 30.12 "Hg

Humidity: 62%

Dew point: 68 °F

Location of Saint John'sLocation

Historic Weather in Saint John's — Graph

°F

Saint John's temperature yesterday

Maximum temperature yesterday: 82 °F (at 10:00 AM)
Minimum temperature yesterday: 77 °F (at 12:00 AM)
Average temperature yesterday: 79 °F

Past Weeks' High & Low Weather Summary

 TemperatureHumidityPressure
High82 °F (Mar 14, 2:00 PM)88% (Mar 15, 11:00 PM)30.15 "Hg (Mar 15, 11:00 PM)
Low72 °F (Mar 15, 11:00 PM)58% (Mar 14, 9:00 AM)29.92 "Hg (Mar 16, 4:00 PM)
Average78 °F71%30.02 "Hg
* Reported Mar 14 9:00 AM — Mar 29 9:00 AM, Saint John's, Weather by CustomWeather, © 2015

Note: Actual official high and low records may vary slightly from our data, if they occured in-between our weather recording intervals... More about our weather records

Advertising

Saint John's weather history for previous 24 hours

 ConditionsComfort  
Time TempWeatherWind HumidityBarometerVisibility
9:00 AM
Sun, Mar 29
81 °FScattered clouds.12 mph66%30.12 "HgN/A
8:00 AM79 °FScattered clouds.9 mph70%30.09 "HgN/A
7:00 AM75 °FPartly sunny.7 mph78%30.07 "HgN/A
6:00 AM77 °FPassing clouds.8 mph69%30.07 "HgN/A
4:00 AM77 °FPassing clouds.12 mph69%30.04 "HgN/A
3:00 AM77 °FPassing clouds.13 mph74%30.07 "HgN/A
2:00 AM77 °FPassing clouds.15 mph69%30.07 "HgN/A
1:00 AM77 °FPassing clouds.17 mph74%30.09 "HgN/A
12:00 AM77 °FPassing clouds.16 mph74%30.09 "HgN/A
11:00 PM
Sat, Mar 28
77 °FPassing clouds.16 mph74%30.12 "HgN/A
10:00 PM77 °FPassing clouds.14 mph74%30.12 "HgN/A
9:00 PM77 °FPassing clouds.15 mph74%30.12 "HgN/A
7:00 PM77 °FPassing clouds.12 mph74%30.09 "HgN/A
6:00 PM79 °FScattered clouds.14 mph74%30.07 "HgN/A
5:00 PM79 °FPassing clouds.14 mph70%30.07 "HgN/A
4:00 PM81 °FPassing clouds.14 mph66%30.07 "HgN/A
3:00 PM82 °FPassing clouds.16 mph62%30.07 "HgN/A
2:00 PM82 °FPassing clouds.15 mph66%30.09 "HgN/A
1:00 PM82 °FScattered clouds.16 mph62%30.12 "HgN/A
12:00 PM82 °FScattered clouds.16 mph62%30.12 "HgN/A
11:00 AM82 °FPassing clouds.16 mph62%30.15 "HgN/A
10:00 AM82 °FScattered clouds.16 mph62%30.15 "HgN/A
Weather by CustomWeather, © 2015

See weather overviewHow to use our weather pages